Regional Weather Roundup
Issued by NWS

Home | Current Version | Previous Version | Graphics & Text | Print | Product List | Glossary On
Versions: 1 2 3 4 5 6 7 8 9 10 11 12 13 14 15 16 17 18 19 20 21 22 23 24 25 26 27 28 29 30 31 32 33 34 35 36 37 38 39 40 41 42 43 44 45 46 47 48 49 50
000
ASUS43 KLOT 242358
RWRIL

ILLINOIS REGIONAL WEATHER ROUNDUP
NATIONAL WEATHER SERVICE CHICAGO/ROMEOVILLE IL
600 PM CST MON NOV 24 2014

NOTE: "FAIR" INDICATES FEW OR NO CLOUDS BELOW 12,000 FEET WITH NO
SIGNIFICANT WEATHER AND/OR OBSTRUCTIONS TO VISIBILITY.

* THESE STATIONS ARE NOT UNDER NWS QUALITY CONTROL. THEY ALSO MAY NOT
  REPORT WEATHER SUCH AS PRECIPITATION OR FOG.

ILZ001-002-007-009-015-016-024-250100-
NORTHWEST ILLINOIS

CITY           SKY/WX    TMP DP  RH WIND       PRES   REMARKS
MOLINE         CLOUDY    27  21  78 W22G29    29.75R WCI  13
6HR MIN TEMP:  26; 6HR MAX TEMP:  29; 6HR PCP:  0.02;

$$

ILZ003-004-008-010-011-017-018-250100-
NORTH CENTRAL ILLINOIS

CITY           SKY/WX    TMP DP  RH WIND       PRES   REMARKS
ROCKFORD       NOT AVBL
$$

ILZ005-006-012>014-019>023-250100-
NORTHEAST ILLINOIS

CITY           SKY/WX    TMP DP  RH WIND       PRES   REMARKS
CHICAGO-OHARE  CLOUDY    27  22  81 W25G40    29.63R WCI  12
6HR MIN TEMP:  27; 6HR MAX TEMP:  31; 6HR PCP:  0.01;

CHICAGO-MIDWAY FLURRIES  30  24  78 W25G39    29.65R WCI  16
6HR MIN TEMP:  30; 6HR MAX TEMP:  34; 6HR PCP: TRACE;

AURORA         LGT SNOW  36  21  54 W29G41    29.67R WCI  23
6HR MIN TEMP:  27; 6HR MAX TEMP:  36; 6HR PCP:  0.01;

WAUKEGAN       LGT SNOW  27  21  80 SW12G30   29.57R FOG     WCI  16
DUPAGE AIRPORT LGT SNOW  26  21  81 W26G38    29.65R WCI  10
6HR MIN TEMP:  26; 6HR MAX TEMP:  31; 6HR PCP: TRACE;

WHEELING       CLOUDY    27  22  81 W17G31    29.64R WCI  14
6HR MIN TEMP:  27; 6HR MAX TEMP:  32; 6HR PCP:  0.02;

NORTHERLY ISL    N/A     30  24  78 SW23        N/A  WCI  17
$$

LMZ740>746-250100-
SOUTHERN LAKE MICHIGAN

STATION/POSITION SKY/WX   TEMP    WIND        PRES    VSBY  WAVE
                          AIR SEA DIR/SP/G                  HT/PER
                          (F)     (DEG/KT/KT) (MB)    (MI)  (FT/S)
SOUTHERN BUOY              33 42  240/ 31/ 39  997.7R        10/ 7
WAUKEGAN HARBOR            28     250/ 20/ 30   N/A
HARRISON CRIB              29     240/ 33/ 39   N/A
BURNHAM HARBOR             30     270/  9/ 26   N/A
CALUMET HARBOR             30     230/ 14/ 27 1002.4R
MICHIGAN CITY              32     200/ 35/ 43   N/A
$$

ILZ025>027-034>036-040-047-049-050-058-095>099-250100-
WEST-CENTRAL ILLINOIS

CITY           SKY/WX    TMP DP  RH WIND       PRES   REMARKS
$$

ILZ028>032-037-038-041>044-048-051>054-059>061-250100-
CENTRAL ILLINOIS

CITY           SKY/WX    TMP DP  RH WIND       PRES   REMARKS
PEORIA         CLOUDY    30  21  69 W18G29    29.80R WCI  18
SPRINGFIELD    CLOUDY    35  27  72 W18       29.83R WCI  24
6HR MIN TEMP:  34; 6HR MAX TEMP:  36;

TAYLORVILLE    NOT AVBL
$$

ILZ033-039-045-046-055>057-062-063-250100-
EAST-CENTRAL ILLINOIS

CITY           SKY/WX    TMP DP  RH WIND       PRES   REMARKS
CHAMPAIGN      CLOUDY    34  28  79 W22G29    29.80R WCI  22
$$

ILZ079-100>102-250100-
SOUTHWEST ILLINOIS

CITY           SKY/WX    TMP DP  RH WIND       PRES   REMARKS
CAHOKIA*       CLOUDY    40  29  64 W5        29.89R
$$

ILZ064>066-069>071-074>076-080>082-084>086-088>090-092>094-250100-
SOUTH-CENTRAL ILLINOIS

CITY           SKY/WX    TMP DP  RH WIND       PRES   REMARKS
CARBONDALE     CLOUDY    46  28  49 W6        29.91R
6HR MIN TEMP:  45; 6HR MAX TEMP:  51;

$$

ILZ067-068-072-073-078-083-087-091-250100-
SOUTHEAST ILLINOIS

CITY           SKY/WX    TMP DP  RH WIND       PRES   REMARKS
$$

ABBREVIATIONS USED IN REMARKS
   TC - TEMPERATURE IN CELSIUS
  WCI - WIND CHILL INDEX
   HX - HEAT INDEX
  VSB - VISIBILITY
$$




USA.gov is the U.S. government's official web portal to all federal, state and local government web resources and services.